GFSFLT2_500_rhum_219.txt.gz
RH
34 35 31 26 19 21 23 17 18 17 31 41 39 53 61 53 47 52 30 22 18 17 20 21 17 16 13 12 10 8 7 6
40 45 46 37 31 23 21 20 19 16 15 26 42 57 73 63 62 55 58 31 25 20 19 19 21 19 18 16 13 11 10 9
41 42 47 48 37 31 31 31 31 33 22 19 29 44 64 76 58 63 64 60 35 27 22 22 20 20 21 20 18 16 14 13
40 42 42 41 44 44 36 29 35 32 26 22 29 37 47 66 74 59 60 54 63 42 27 23 24 22 21 21 21 22 20 20
29 27 28 35 35 37 41 42 45 40 38 29 23 38 48 44 57 56 54 46 57 66 46 32 36 28 24 22 20 20 19 17
23 23 24 26 30 32 32 34 36 46 50 44 30 27 33 40 40 52 75 45 39 64 70 50 41 39 25 23 24 25 30 34
25 25 24 24 24 24 28 34 35 38 49 57 48 33 36 39 37 49 52 60 66 68 67 78 62 43 37 38 35 36 42 44
25 24 26 25 22 18 20 21 27 34 43 54 62 51 39 39 66 93 82 70 63 58 60 63 61 75 49 55 62 64 61 56
18 15 13 14 12 14 14 19 25 26 30 38 49 56 62 54 46 40 42 44 55 91 89 58 75 66 90 55 52 64 66 67
24 19 10 11 14 12 12 13 15 23 29 33 45 53 53 61 62 61 64 62 56 46 49 45 48 57 82 88 86 64 70 73
26 22 14 11 11 12 13 13 12 16 21 28 37 57 56 51 60 64 70 73 72 77 76 78 71 67 85 95 82 81 81 78
30 26 20 15 13 12 11 10 8 8 11 12 26 41 49 46 41 57 63 68 72 75 76 86 81 76 84 81 84 86 85 83
30 28 25 19 17 15 12 10 9 10 11 14 16 29 32 27 38 47 52 52 71 57 56 61 68 56 80 77 77 80 77 82
27 23 18 17 16 14 12 11 10 10 11 11 12 13 15 16 25 40 36 35 37 49 62 61 57 48 57 67 66 80 85 85
27 23 21 20 20 17 15 15 16 15 14 14 14 15 14 13 15 17 19 18 28 38 42 58 65 64 59 58 50 55 85 74
39 36 31 28 26 24 23 22 21 22 22 21 18 15 15 17 19 20 20 20 20 21 22 31 59 67 57 48 65 68 60 55
44 42 40 34 30 28 28 30 33 34 30 28 26 24 22 22 22 22 24 24 23 23 25 27 42 45 44 54 63 83 96 54
42 41 42 43 45 47 48 49 48 48 47 42 36 34 30 20 20 20 26 27 25 22 20 16 18 39 53 41 50 67 78 59
50 48 46 44 44 45 43 41 33 24 22 22 19 17 17 17 18 18 15 10 7 7 9 14 14 12 26 18 28 95 93 62
52 48 53 54 51 45 37 33 32 30 28 25 24 23 17 19 15 14 13 13 13 10 10 9 7 6 6 21 25 78 99 73

GFSFLT2_500_rhum_222.txt.gz
RH
30 35 38 40 34 35 25 20 22 18 18 15 17 34 32 37 44 41 36 37 27 19 16 17 18 17 15 13 12 10 8 7
32 35 37 41 39 36 36 33 24 22 24 24 14 16 19 21 23 33 41 35 38 28 22 17 17 20 19 17 16 13 11 9
32 32 28 26 32 36 36 36 32 31 32 32 29 21 21 24 21 22 29 35 38 40 31 24 19 18 18 20 20 18 16 14
29 30 27 25 25 29 31 36 40 40 38 37 34 30 27 27 32 31 21 41 34 42 46 37 24 20 21 20 18 20 22 17
26 25 23 20 20 23 22 23 25 28 32 44 47 45 41 30 32 41 31 33 25 27 48 48 45 27 29 26 22 20 19 15
24 22 21 19 13 15 20 19 19 22 23 30 38 49 55 41 30 34 37 38 33 49 63 27 42 47 38 40 35 24 22 22
20 20 19 15 13 11 11 9 11 16 20 23 19 30 38 53 48 34 35 39 55 61 66 53 60 57 48 45 40 33 28 26
16 14 12 8 7 6 7 5 6 8 11 18 22 20 32 40 49 53 54 46 50 50 52 64 78 64 64 69 58 48 41 42
15 14 13 11 12 10 8 10 11 10 8 9 16 18 21 30 36 44 52 58 60 58 50 56 48 68 84 73 64 73 69 61
17 16 16 16 16 21 18 13 14 16 14 12 15 18 22 20 28 44 52 48 51 54 59 66 69 70 66 64 59 62 59 81
24 22 21 22 22 21 22 19 15 14 13 12 12 18 22 22 28 41 55 57 56 45 55 55 62 74 73 75 74 76 68 82
24 24 25 28 29 29 26 24 23 18 16 13 11 11 23 24 24 34 40 43 43 43 38 57 61 61 62 74 66 60 70 70
26 26 26 26 27 27 26 23 20 18 16 15 14 12 11 14 23 20 25 34 32 34 37 49 50 46 43 60 73 70 58 61
33 35 34 34 33 32 30 28 22 18 17 15 13 13 17 17 12 15 16 16 19 28 25 20 23 33 47 48 42 40 43 66
42 42 44 44 42 40 34 26 24 23 21 18 16 16 17 16 17 17 16 16 15 14 19 23 24 31 34 32 28 27 45 45
44 43 44 45 45 45 42 38 35 33 28 25 23 22 22 22 21 21 18 16 16 16 16 16 20 22 33 36 50 47 44 44
38 42 45 47 46 45 43 41 39 36 33 32 30 31 34 32 29 27 26 21 14 13 12 13 22 24 26 45 37 37 53 57
46 46 49 50 49 48 48 48 49 50 52 53 53 52 53 51 47 41 33 28 26 23 19 18 11 10 10 15 30 32 27 28
41 48 51 52 53 48 45 43 47 51 58 60 57 51 44 34 28 24 24 27 26 24 21 18 18 16 13 10 8 18 35 30
39 39 39 41 41 52 57 63 62 58 54 48 38 24 16 19 19 19 17 16 17 20 23 20 18 18 13 8 6 5 5 6

GFSFLT2_500_rhum_225.txt.gz
RH
31 30 30 28 28 32 35 36 35 28 22 21 26 23 17 14 14 15 17 17 19 28 31 22 14 15 14 14 13 11 9 8
31 30 31 24 23 25 27 32 35 32 30 30 32 31 24 21 26 27 22 24 22 22 20 28 26 16 15 15 14 14 13 10
29 29 27 24 21 21 21 22 24 29 34 33 33 35 33 28 28 28 29 29 25 43 46 19 22 30 19 16 16 15 16 16
27 26 23 22 20 17 16 15 16 17 18 22 30 38 43 42 39 33 30 32 30 26 29 23 23 25 32 22 18 16 16 16
27 25 23 20 15 16 16 16 11 12 10 12 15 20 30 43 44 48 42 34 37 37 38 33 48 55 36 37 31 28 24 17
29 23 20 14 10 11 10 12 12 11 10 9 8 11 16 23 26 36 43 42 40 36 43 53 58 63 57 52 51 41 38 36
20 20 17 12 7 7 5 5 6 5 6 6 6 6 7 12 15 20 29 36 44 46 44 59 53 64 58 65 59 48 48 40
16 21 18 13 7 6 6 8 13 11 9 12 13 12 8 8 9 12 17 26 36 48 52 54 51 48 55 69 60 65 62 57
11 14 20 17 20 19 17 18 16 18 18 16 15 15 14 13 15 13 15 14 28 42 53 54 65 60 59 63 62 64 66 80
16 30 38 24 24 21 19 18 18 17 17 19 23 22 17 14 12 12 12 16 19 25 40 58 61 65 65 68 71 69 70 63
21 20 21 20 22 24 24 20 20 21 22 22 28 27 30 31 32 29 27 32 22 20 25 29 36 48 52 56 67 79 79 67
23 21 19 18 19 20 21 23 24 26 27 28 28 30 33 36 43 36 45 55 52 48 47 48 38 31 34 41 48 52 65 64
22 22 22 23 25 31 35 36 38 37 36 36 35 33 30 26 24 18 15 25 34 46 37 40 44 45 44 40 41 39 39 38
26 28 32 35 37 38 38 40 43 44 42 40 38 37 35 34 33 29 21 16 14 18 18 20 30 45 54 51 39 31 26 30
36 37 40 42 43 44 44 46 47 46 45 45 43 41 40 39 36 32 26 22 20 20 20 20 20 22 22 24 36 31 28 29
39 44 50 50 46 43 43 43 44 44 44 45 45 40 38 35 34 32 30 30 30 30 27 25 24 26 25 26 24 28 23 37
38 43 47 46 46 45 44 43 44 46 51 52 51 49 45 45 58 59 61 72 71 72 57 42 32 28 21 43 32 26 27 38
41 47 46 45 43 44 44 44 49 54 57 58 58 59 62 66 67 63 60 61 60 52 44 40 33 35 37 36 43 32 34 28
53 48 46 48 47 46 50 51 47 42 39 44 50 59 61 45 35 33 29 24 22 20 23 22 24 29 28 30 25 20 16 18
24 26 37 34 32 33 29 30 34 37 45 54 60 58 40 40 40 37 32 27 26 23 20 22 24 29 31 31 38 33 23 23

GFSFLT2_500_rhum_228.txt.gz
RH
34 29 25 23 22 24 26 31 34 36 34 28 26 25 31 32 28 28 27 28 23 18 18 20 24 29 23 15 13 13 10 9
33 29 25 23 23 22 19 20 21 24 29 30 28 29 31 34 34 35 34 32 30 32 24 44 36 18 18 28 17 16 15 12
33 29 24 23 21 17 15 15 14 14 15 16 18 23 26 30 34 35 38 37 35 34 30 30 42 28 19 17 28 22 17 18
31 29 24 20 18 13 11 12 13 11 11 11 12 15 17 19 23 21 24 31 35 36 37 38 39 33 40 47 23 29 30 20
30 27 25 21 15 11 10 10 9 9 8 7 7 7 9 12 13 15 18 21 27 38 35 36 37 44 54 55 50 37 42 44
32 30 25 22 18 12 11 7 6 6 6 6 6 7 7 7 7 9 11 10 14 27 30 33 35 36 43 46 54 50 53 52
32 32 19 20 22 15 13 8 8 9 13 15 13 12 13 15 14 10 9 10 10 11 22 33 37 36 42 44 52 54 55 58
20 32 24 17 17 15 13 16 18 19 21 23 21 20 20 19 17 18 16 15 14 15 17 18 30 38 41 43 43 42 49 54
27 33 41 30 26 30 24 24 25 25 26 26 25 24 22 23 26 25 24 20 15 14 13 16 23 27 29 39 42 38 42 50
25 27 31 40 44 36 24 20 21 24 25 28 27 27 27 27 28 42 54 51 44 46 41 34 33 23 36 33 31 41 38 39
23 26 22 22 22 23 22 21 19 18 21 28 32 33 37 40 41 44 48 61 59 51 37 44 51 55 40 47 45 43 41 32
23 25 24 24 22 22 24 26 29 34 36 36 33 31 31 32 35 38 43 48 54 60 58 61 57 53 54 53 54 51 44 32
26 24 23 24 25 29 35 38 39 41 38 34 31 31 29 29 30 34 34 35 38 38 37 40 46 55 57 63 57 53 49 45
32 31 31 34 38 39 38 38 37 35 34 34 36 37 36 36 37 40 42 43 43 43 42 38 32 25 29 32 30 45 45 55
39 40 40 43 42 37 34 36 37 38 41 44 45 45 44 44 45 47 47 46 47 46 42 40 39 39 36 37 37 34 37 38
45 46 43 41 36 35 36 37 39 41 43 44 49 52 56 56 57 58 59 58 56 52 50 50 52 50 49 50 51 49 45 41
43 46 44 40 39 40 40 41 39 36 40 45 49 48 50 57 61 61 63 64 66 68 73 74 76 77 79 82 78 73 66 63
47 50 50 45 39 34 33 30 26 30 35 42 46 49 44 37 32 35 56 67 66 64 62 60 59 61 71 77 79 73 67 44
52 45 33 27 29 33 31 28 28 23 18 16 14 12 22 43 56 64 72 69 48 40 34 32 33 34 33 33 28 27 34 44
64 45 38 44 47 33 22 21 18 20 16 13 14 16 23 35 49 60 66 72 72 61 59 61 48 45 37 36 34 30 29 31

GFSFLT2_500_rhum_231.txt.gz
RH
37 33 22 21 23 22 22 23 23 24 25 25 26 24 27 28 30 32 34 35 34 34 33 25 30 30 21 19 28 21 17 13
37 35 22 22 20 18 16 15 16 18 17 17 18 20 22 22 23 28 28 28 31 33 35 34 32 33 30 20 16 30 26 18
35 34 28 23 22 18 14 13 15 15 15 13 14 14 15 17 17 18 22 26 30 31 30 30 32 34 35 28 39 22 31 39
31 36 30 24 22 19 14 14 10 10 12 12 10 9 9 9 12 12 13 18 25 30 35 31 26 28 32 36 44 46 36 28
27 32 32 28 20 15 8 8 7 7 7 8 8 8 8 7 8 8 8 7 8 12 21 26 25 26 24 25 29 41 47 42
30 33 30 34 24 19 15 8 11 8 11 12 13 16 12 12 14 15 16 14 14 12 11 12 16 20 29 32 26 28 38 50
37 35 33 32 27 24 24 22 20 18 20 21 24 24 22 21 22 22 21 20 20 18 16 15 16 17 20 25 27 29 30 36
41 37 36 37 31 32 34 33 31 31 31 30 28 27 27 28 26 26 26 27 29 32 29 23 18 17 15 18 20 22 25 31
30 35 36 37 40 34 37 50 38 27 27 27 27 28 27 28 29 29 30 32 33 37 44 50 48 42 39 29 31 25 25 29
28 28 28 39 45 42 35 24 26 26 27 29 31 32 34 35 35 34 38 38 37 47 54 63 64 63 62 50 45 45 33 32
26 24 24 23 23 23 26 28 28 28 30 33 35 36 33 32 32 37 43 43 48 48 47 57 61 66 66 63 60 64 62 48
31 26 24 26 25 27 29 27 28 31 34 35 32 31 32 33 34 36 36 38 40 42 44 43 46 48 51 50 42 46 58 59
34 35 35 34 33 34 35 34 33 33 31 28 28 30 31 34 38 41 40 42 44 47 46 41 41 44 43 44 43 42 43 38
35 38 40 41 44 46 42 38 34 30 30 32 34 34 35 36 36 36 34 30 28 27 28 28 35 50 52 51 42 45 46 44
35 40 42 44 46 42 36 32 32 34 36 38 37 42 41 36 37 35 30 23 20 22 25 28 26 42 54 49 41 36 36 34
46 46 46 43 38 35 34 34 36 40 43 46 46 32 32 33 30 26 27 26 25 26 28 26 28 25 26 35 43 38 31 24
46 45 43 42 40 37 41 44 42 39 36 39 33 33 26 21 20 20 18 15 14 19 27 36 41 52 65 69 69 67 66 58
46 48 48 48 46 45 43 42 43 43 36 30 25 23 23 23 20 16 16 16 18 21 26 34 55 74 86 77 61 59 58 54
55 56 59 58 55 49 47 42 39 33 29 28 28 24 22 19 18 21 22 23 17 16 18 26 46 54 59 68 76 66 59 50
58 59 59 57 58 53 44 38 37 39 40 34 30 25 23 22 23 25 20 16 14 18 20 23 26 31 27 16 15 17 28 53